806  
NZUS43 KILX 231110  
HWRILX  
 
AREA WEATHER ROUNDUP  
NATIONAL WEATHER SERVICE LINCOLN IL  
600 AM CDT TUE OCT 23 2018  
 
NOTE: "FAIR" INDICATES FEW OR NO CLOUDS BELOW 12,000 FEET, WITH  
NO SIGIFICANT WEATHER AND/OR OBSTRUCTIONS TO VISIBILITY.  
 
 
CITY SKY/WX TMP DP RH WIND PRES REMARKS
 
BLOOMINGTON FAIR 42 31 64 N10 30.22R  
CHAMPAIGN FAIR 35 30 82 NW12 30.19R WCI 27  
DANVILLE FAIR 42 33 71 NW9 30.16R  
DECATUR FAIR 44 33 65 NW8 30.21R  
EFFINGHAM FAIR 38 37 96 CALM 30.22R  
FLORA FAIR 39 37 93 CALM 30.22R  
GALESBURG FAIR 37 29 75 NW5 30.26R WCI 33  
JACKSONVILLE CLEAR 37 31 80 NW3 30.24R  
LACON FAIR 32 29 90 CALM 30.23R  
LAWRENCEVILLE FAIR 39 35 86 CALM 30.20R  
LITCHFIELD CLEAR 39 37 93 N3 30.24R  

 
 
 
CITY SKY/WX TMP DP RH WIND PRES REMARKS
 
LINCOLN FAIR 41 34 75 NW3 30.22S  
MACOMB CLEAR 37 31 79 N8 30.27R WCI 31  
MATTOON FAIR 39 34 82 NW8 30.19R WCI 33  
MT CARMEL AP FAIR 37 36 96 CALM 30.20R  
OLNEY-NOBLE AP FAIR 37 35 93 W3 30.21S  
PARIS AP FAIR 37 34 90 NW5 30.19R WCI 33  
PEORIA FAIR 41 30 65 NW3 30.24R  
PONTIAC FAIR 37 32 82 CALM 30.22R  
RANTOUL FAIR 44 34 65 NW9 30.19R  
ROBINSON FAIR 34 34 99 CALM 30.20R  
SPRINGFIELD FAIR 38 36 92 NW3 30.23R  
TAYLORVILLE FAIR 40 33 77 N3 30.22S  

 
   
..REGIONAL REPORTS
 
 
 
CITY SKY/WX TMP DP RH WIND PRES REMARKS
 
CHICAGO O'HARE FAIR 42 28 57 NW10 30.18R  
KANKAKEE FAIR 41 30 66 NW9 30.19R  
LA SALLE FAIR 37 31 78 NW8 30.24R WCI 31  
MOLINE FAIR 40 29 64 NW5 30.26R  
MOUNT STERLING CLEAR 38 32 77 NW6 30.25R WCI 34  
MOUNT VERNON FAIR 34 34 100 CALM 30.21R  
PITTSFIELD CLEAR 43 33 68 N5 30.26R  
QUINCY CLEAR 41 31 67 N6 30.25R  
ROCKFORD FAIR 37 26 64 NW6 30.24R WCI 32  

 
 
 
CITY SKY/WX TMP DP RH WIND PRES REMARKS
 
BURLINGTON CLEAR 40 30 67 NW6 30.27R  
CEDAR RAPIDS FAIR 31 27 85 NW7 30.28R WCI 24  
DES MOINES PTCLDY 36 29 75 NW6 30.32R WCI 31  
KIRKSVILLE CLEAR 41 32 70 N8 30.29R  
OTTUMWA PTCLDY 35 28 75 NW9 30.30R WCI 28  
ST LOUIS PTCLDY 45 44 97 NW5 30.24R  

 
 
 
CITY SKY/WX TMP DP RH WIND PRES REMARKS
 
TERRE HAUTE FAIR 34 33 96 CALM 30.18R  
EVANSVILLE FAIR 39 39 100 CALM 30.20R  
INDIANAPOLIS FAIR 40 37 89 W7 30.15S  
LAFAYETTE FAIR 36 35 96 W3 30.17R  
MADISON FAIR 38 28 67 NW7 30.22R WCI 33  
MILWAUKEE FAIR 42 29 59 NW9 30.18R  

 
 
 
 
CLICK HERE TO GO TO PREVIOUS BULLETINS.

The Nexlab IL Page Main Text Page